Charter Quote
Worldwide +1-877-727-2538 Call
Select Language Lang
SAFETY RELIABILITY EXPERIENCE

Private Jet Charter Services - Le Cannet Airport (LFMC)

Paramount Business Jets offers private jet charter flights and luxury airliner charters to and from Le Cannet Airport.

AIRPORT INFORMATION
ICAOLFMC
LOCATIONLe Luc, France
FACILITY TYPEAIRPORT
Runway Length (ft) Width (ft) Surface Type Elevation (ft)
31/13 4593 98 ASP 264.81967
27/09 2625 98 ASP 264.81967

At Paramount Business Jets you can hire chartered private jets to and from Le Cannet Airport with as little as 4 hours of notice. All flights booked via Paramount Business Jets are operated by certified direct air carriers that meet and exceed the FAA part 135 and 121 protocol or a foreign equivalent safety authority. Furthermore, Paramount Business Jets subscribes to ARGUS for their third party safety checks of operators, aircraft, and crews prior each and every flight to and from Le Cannet Airport and worldwide.

  • Quote a trip using Le Cannet Airport or call us 24/7 - 365 days a year at +1-877-727-2538.
Questions? Call +1-877-727-2538

METAR Weather Data at Le Cannet Airport, LFMC

STATIONLFMC
OBSERVEDSun Aug 25, 16:30 UTC
NOWSun Aug 25, 16:43 UTC
AGE13 min ago
WINDESE at 9 mph
VISIBILITY16 miles
METARLFMC 251630Z AUTO 11008KT 9999 ////// 32/14 Q1016

Call us on +1-877-727-2538 (24 Hours) to Hire a Private Jet or Get a Quick Quote.

Find Airports Near any Location

Processing
...